EW5962 Weather Reports


Display with metric or nautical units.
time (UTC)temp
F
wind
direction
speed
MPH
gust
MPH
rain 1hr
in
rain 24hr
in
rain mn
in
humidity
%
barometer
mb
20260507205101 57 82 1.0 4.0 0.18 0.72 0.49 95 1008.0
20260507204503 57 305 0.0 5.0 0.17 0.71 0.48 95 1007.8
20260507204012 57 349 2.0 5.0 0.17 0.71 0.48 94 1007.8
20260507203603 57 13 2.0 6.0 0.17 0.71 0.48 94 1007.8
20260507203002 57 335 2.0 9.0 0.16 0.70 0.47 94 1007.5
20260507202509 57 153 0.0 7.0 0.15 0.69 0.46 94 1007.1
20260507201502 58 320 3.0 6.0 0.09 0.63 0.40 92 1007.9
20260507201009 58 15 1.0 4.0 0.04 0.57 0.35 91 1008.2
20260507200603 59 307 1.0 4.0 0.01 0.55 0.32 91 1007.6
20260507200004 59 1 1.0 7.0 0.00 0.54 0.31 90 1007.4
20260507195509 60 348 3.0 5.0 0.00 0.54 0.31 89 1007.4
20260507195105 60 4 1.0 4.0 0.00 0.54 0.31 89 1007.5
20260507194502 61 349 1.0 4.0 0.00 0.54 0.31 89 1007.0
20260507194009 61 25 2.0 4.0 0.00 0.54 0.31 89 1006.8
20260507193603 61 72 2.0 4.0 0.00 0.54 0.31 89 1007.2
20260507193003 62 86 1.0 4.0 0.00 0.54 0.31 90 1007.2
20260507192508 62 70 1.0 5.0 0.00 0.54 0.31 91 1007.0
20260507192102 62 27 1.0 5.0 0.00 0.54 0.31 89 1007.0
20260507191503 62 24 1.0 6.0 0.00 0.54 0.31 90 1006.7
20260507191008 62 340 2.0 6.0 0.00 0.54 0.31 91 1006.8
20260507190602 62 68 0.0 8.0 0.00 0.54 0.31 92 1006.9
20260507190004 62 294 1.0 8.0 0.00 0.54 0.31 91 1007.1
20260507185509 62 4 1.0 5.0 0.00 0.54 0.31 93 1007.2
20260507185102 62 19 1.0 5.0 0.00 0.54 0.31 93 1007.2
20260507184503 62 35 0.0 3.0 0.00 0.54 0.31 93 1007.3
20260507184009 62 66 0.0 4.0 0.00 0.54 0.31 92 1007.1
20260507183604 62 51 1.0 4.0 0.00 0.54 0.31 92 1007.1
20260507183007 63 323 1.0 5.0 0.00 0.54 0.31 92 1007.3
20260507182510 63 306 2.0 6.0 0.00 0.54 0.31 91 1007.2
20260507182103 63 317 1.0 7.0 0.00 0.54 0.31 92 1007.3
20260507181503 63 1 2.0 8.0 0.00 0.54 0.31 92 1007.4
20260507181009 63 41 2.0 5.0 0.00 0.54 0.31 92 1007.3
20260507180603 64 46 1.0 7.0 0.00 0.54 0.31 91 1007.2
20260507180003 64 357 2.0 11.0 0.00 0.54 0.31 92 1007.0
20260507175512 64 1 3.0 11.0 0.00 0.57 0.31 91 1007.0
20260507175103 64 335 2.0 6.0 0.00 0.57 0.31 92 1007.0
20260507174504 65 24 1.0 5.0 0.00 0.57 0.31 92 1007.3
20260507174008 65 315 1.0 8.0 0.00 0.57 0.31 91 1007.3
20260507173603 65 349 2.0 8.0 0.00 0.57 0.31 90 1007.4
20260507173003 67 352 3.0 8.0 0.00 0.57 0.31 90 1007.3
20260507172509 67 239 0.0 2.0 0.00 0.57 0.31 93 1007.3
20260507172103 67 239 0.0 2.0 0.00 0.57 0.31 93 1007.3
20260507171502 67 210 0.0 2.0 0.00 0.57 0.31 94 1007.4
20260507171009 67 210 0.0 2.0 0.00 0.57 0.31 95 1007.4
20260507170603 67 208 0.0 2.0 0.00 0.57 0.31 94 1007.3
20260507170002 67 208 0.0 2.0 0.00 0.57 0.31 96 1007.3
20260507165509 67 151 0.0 1.0 0.00 0.57 0.31 96 1007.4
20260507165106 67 151 0.0 2.0 0.00 0.57 0.31 96 1007.5
20260507164502 66 151 0.0 2.0 0.00 0.57 0.31 95 1007.8
20260507164008 66 135 0.0 2.0 0.00 0.57 0.31 95 1007.6
20260507163603 66 135 0.0 3.0 0.00 0.57 0.31 96 1007.2
20260507163002 66 354 0.0 3.0 0.00 0.57 0.31 95 1007.0
20260507162509 66 21 1.0 3.0 0.01 0.57 0.31 97 1007.0
20260507162103 66 192 0.0 2.0 0.01 0.57 0.31 97 1006.9
20260507161503 66 192 0.0 2.0 0.01 0.57 0.31 98 1006.8
20260507161008 65 192 0.0 2.0 0.01 0.57 0.31 97 1007.0
20260507160603 65 190 0.0 2.0 0.01 0.57 0.31 97 1007.0
20260507160004 65 189 0.0 1.0 0.01 0.57 0.31 97 1007.2
20260507155508 65 189 0.0 1.0 0.01 0.57 0.31 97 1007.2
20260507155104 65 189 0.0 0.0 0.01 0.57 0.31 97 1007.4
20260507154502 65 189 0.0 1.0 0.01 0.57 0.31 97 1007.3
20260507154010 64 189 0.0 0.0 0.01 0.57 0.31 97 1007.8
20260507153602 64 189 0.0 1.0 0.01 0.57 0.31 97 1007.8
20260507153003 64 189 0.0 1.0 0.01 0.57 0.31 97 1007.9
20260507152509 64 189 0.0 0.0 0.00 0.56 0.30 97 1008.1
20260507152106 64 189 0.0 0.0 0.01 0.56 0.30 97 1008.1
20260507151503 64 189 0.0 1.0 0.02 0.56 0.30 97 1008.0
20260507151008 64 190 0.0 1.0 0.02 0.56 0.30 97 1008.2
20260507150602 64 190 0.0 1.0 0.03 0.56 0.30 97 1008.3
20260507150005 64 190 0.0 3.0 0.03 0.56 0.30 97 1008.6
20260507145509 64 192 0.0 4.0 0.04 0.56 0.30 97 1008.9
20260507145102 64 196 0.0 4.0 0.04 0.56 0.30 97 1008.9
20260507144502 64 162 0.0 2.0 0.04 0.56 0.30 97 1008.1
20260507144009 64 162 0.0 1.0 0.05 0.56 0.30 97 1007.7
20260507143602 64 162 0.0 0.0 0.05 0.56 0.30 97 1007.6
20260507143003 64 162 0.0 1.0 0.05 0.56 0.30 97 1007.7
20260507142509 64 162 0.0 3.0 0.05 0.56 0.30 97 1007.8
20260507142103 64 162 0.0 3.0 0.05 0.56 0.28 97 1008.0
20260507141502 64 162 0.0 1.0 0.04 0.55 0.28 97 1008.1
20260507141012 64 162 0.0 1.0 0.04 0.55 0.28 97 1008.0
20260507140604 64 162 0.0 1.0 0.04 0.54 0.27 97 1008.2
20260507140002 64 162 0.0 1.0 0.05 0.54 0.27 97 1008.0
20260507135508 64 162 0.0 0.0 0.04 0.53 0.26 97 1008.0
20260507135102 64 162 0.0 0.0 0.05 0.53 0.26 97 1007.9
20260507134507 64 162 0.0 0.0 0.06 0.53 0.26 97 1007.3
20260507134012 64 162 0.0 0.0 0.06 0.52 0.25 97 1007.1
20260507133603 64 162 0.0 0.0 0.08 0.52 0.25 97 1007.0
20260507133005 63 162 0.0 0.0 0.10 0.52 0.25 97 1007.1
20260507132512 63 162 0.0 0.0 0.11 0.52 0.25 97 1007.2
20260507132103 63 162 0.0 0.0 0.10 0.51 0.24 97 1007.7
20260507131506 63 162 0.0 0.0 0.10 0.51 0.24 97 1008.1
20260507131008 63 162 0.0 1.0 0.10 0.51 0.24 97 1008.0
20260507130601 63 162 0.0 1.0 0.10 0.50 0.23 97 1008.2
20260507130003 63 162 0.0 0.0 0.09 0.49 0.22 97 1008.5
20260507125509 63 162 0.0 1.0 0.10 0.49 0.22 97 1008.7
20260507125101 63 162 0.0 1.0 0.09 0.48 0.21 97 1009.0
20260507124502 63 162 0.0 1.0 0.10 0.47 0.20 97 1009.1
20260507124009 63 162 0.0 1.0 0.11 0.46 0.19 97 1009.2
20260507123604 63 162 0.0 1.0 0.09 0.44 0.17 97 1009.3
20260507123006 63 162 0.0 0.0 0.07 0.42 0.15 97 1009.3
20260507122511 63 162 0.0 0.0 0.06 0.41 0.14 97 1009.1
20260507122102 63 162 0.0 1.0 0.06 0.41 0.14 97 1008.8
20260507121502 63 162 0.0 2.0 0.06 0.41 0.14 97 1008.7
20260507121009 63 162 0.0 3.0 0.05 0.40 0.13 97 1008.6
20260507120603 63 162 0.0 3.0 0.05 0.40 0.13 97 1008.6
20260507120002 63 167 0.0 2.0 0.05 0.40 0.13 97 1008.7
20260507115508 63 167 0.0 2.0 0.04 0.39 0.12 97 1008.7
20260507115101 63 169 0.0 2.0 0.04 0.38 0.11 97 1008.7
20260507114503 63 200 0.0 1.0 0.03 0.37 0.10 97 1008.6
20260507114008 63 200 0.0 1.0 0.01 0.35 0.08 97 1008.5
20260507113605 63 200 0.0 1.0 0.01 0.35 0.08 97 1008.6
20260507113002 63 200 0.0 0.0 0.01 0.35 0.08 97 1008.2
20260507112509 63 200 0.0 0.0 0.01 0.35 0.08 97 1008.1
20260507112102 63 200 0.0 0.0 0.01 0.35 0.08 97 1008.2
20260507111507 63 200 0.0 0.0 0.02 0.35 0.08 97 1008.3
20260507111008 63 200 0.0 0.0 0.02 0.35 0.08 97 1008.0
20260507110602 63 200 0.0 0.0 0.02 0.35 0.08 97 1007.8
20260507110002 63 200 0.0 0.0 0.02 0.35 0.08 97 1008.1
20260507105508 63 200 0.0 0.0 0.02 0.35 0.08 97 1007.9
20260507105105 63 200 0.0 0.0 0.01 0.34 0.07 97 1008.1
20260507104506 63 200 0.0 0.0 0.01 0.34 0.07 97 1008.3
20260507104008 63 200 0.0 0.0 0.01 0.34 0.07 97 1008.2
20260507103604 63 200 0.0 0.0 0.01 0.34 0.07 97 1008.3
20260507103002 63 200 0.0 0.0 0.01 0.34 0.07 97 1008.2
20260507102510 63 200 0.0 0.0 0.02 0.34 0.07 97 1008.2
20260507102105 63 200 0.0 0.0 0.02 0.34 0.07 97 1008.0
20260507101512 63 200 0.0 0.0 0.01 0.33 0.06 97 1008.2
20260507101014 63 200 0.0 1.0 0.01 0.33 0.06 97 1008.2
20260507100605 63 200 0.0 1.0 0.01 0.33 0.06 97 1008.0
20260507100004 63 200 0.0 0.0 0.01 0.33 0.06 97 1008.2
20260507095509 63 200 0.0 0.0 0.01 0.33 0.06 97 1008.2
20260507095104 63 200 0.0 0.0 0.01 0.33 0.06 97 1008.2
20260507094504 63 200 0.0 0.0 0.01 0.33 0.06 97 1008.1
20260507094010 63 200 0.0 0.0 0.01 0.33 0.06 97 1008.4
20260507093604 63 200 0.0 0.0 0.01 0.33 0.06 97 1008.6
20260507093004 63 200 0.0 0.0 0.00 0.32 0.05 97 1008.2
20260507092509 63 200 0.0 0.0 0.00 0.32 0.05 97 1008.3
20260507091503 63 200 0.0 1.0 0.01 0.32 0.05 97 1008.4
20260507091010 63 200 0.0 0.0 0.01 0.32 0.05 97 1008.4
20260507090603 63 200 0.0 1.0 0.01 0.32 0.05 97 1008.2
20260507090006 63 200 0.0 2.0 0.01 0.32 0.05 97 1008.4
20260507085509 63 200 0.0 3.0 0.01 0.32 0.05 97 1007.9
20260507085103 63 196 1.0 3.0 0.01 0.32 0.05 97 1007.7
20260507084609 63 194 0.0 2.0 0.01 0.32 0.05 97 1007.8
20260507084010 63 194 0.0 1.0 0.01 0.32 0.05 97 1007.7
20260507083603 63 194 0.0 1.0 0.01 0.32 0.05 97 1007.7
20260507083004 63 194 0.0 1.0 0.01 0.32 0.05 97 1007.7
20260507082509 63 194 0.0 1.0 0.01 0.32 0.05 97 1007.9
20260507082103 63 194 0.0 0.0 0.01 0.32 0.05 97 1008.0
20260507081510 63 194 0.0 2.0 0.00 0.31 0.04 97 1008.0
20260507081009 63 194 0.0 2.0 0.00 0.31 0.04 97 1008.1
20260507080604 63 194 0.0 2.0 0.00 0.31 0.04 97 1008.1
20260507080004 63 194 0.0 1.0 0.00 0.31 0.04 97 1008.1
20260507075509 63 194 0.0 2.0 0.00 0.31 0.04 97 1008.2
20260507075106 63 194 0.0 2.0 0.00 0.31 0.04 97 1008.5
20260507074517 63 194 0.0 2.0 0.00 0.31 0.04 97 1008.3
20260507074011 63 194 0.0 2.0 0.00 0.31 0.04 97 1008.7
20260507073603 63 194 0.0 1.0 0.00 0.31 0.04 97 1008.9
20260507073004 63 194 0.0 1.0 0.00 0.31 0.04 97 1009.2
20260507072510 63 194 0.0 1.0 0.00 0.31 0.04 97 1009.3
20260507072105 63 194 0.0 2.0 0.00 0.31 0.04 97 1009.1
20260507071504 63 194 0.0 3.0 0.00 0.31 0.04 97 1009.0
20260507071009 63 194 0.0 2.0 0.00 0.31 0.04 97 1008.9
20260507070604 63 194 0.0 2.0 0.01 0.31 0.04 97 1008.8
20260507070010 63 194 0.0 2.0 0.02 0.31 0.04 97 1008.8
20260507065514 63 194 0.0 2.0 0.02 0.31 0.04 97 1008.9
20260507065104 63 194 0.0 0.0 0.02 0.31 0.04 97 1009.0
20260507064505 63 194 0.0 0.0 0.02 0.31 0.04 97 1009.3
20260507064009 63 194 0.0 0.0 0.02 0.31 0.04 97 1009.4
20260507063604 63 194 0.0 0.0 0.02 0.31 0.04 97 1009.4
20260507063005 63 194 0.0 0.0 0.02 0.31 0.04 97 1009.4
20260507062510 63 194 0.0 0.0 0.02 0.31 0.04 96 1009.9
20260507062104 63 194 0.0 0.0 0.03 0.31 0.04 96 1009.8
20260507061504 63 194 0.0 2.0 0.04 0.31 0.04 96 1009.6
20260507061009 63 194 0.0 2.0 0.04 0.31 0.04 96 1010.1
20260507060604 63 194 0.0 1.0 0.03 0.30 0.03 96 1009.6
20260507060004 63 194 0.0 1.0 0.02 0.28 0.02 96 1010.3
20260507055511 63 194 0.0 1.0 0.02 0.28 0.02 96 1010.8
20260507055103 63 194 0.0 0.0 0.02 0.28 0.02 96 1010.5
20260507054503 63 194 0.0 0.0 0.02 0.28 0.02 96 1010.4
20260507054013 63 194 0.0 0.0 0.02 0.28 0.02 96 1010.2
20260507053603 63 194 0.0 0.0 0.02 0.28 0.02 96 1010.4
20260507053006 63 194 0.0 1.0 0.02 0.28 0.02 96 1010.5
20260507052513 63 194 0.0 1.0 0.01 0.28 0.01 96 1010.5
20260507052104 63 194 0.0 1.0 0.01 0.28 0.01 96 1010.5
20260507051503 63 194 0.0 1.0 0.00 0.27 0.00 96 1010.9
20260507051010 63 194 0.0 1.0 0.00 0.27 0.00 96 1011.2
20260507050603 63 194 0.0 2.0 0.00 0.27 0.00 96 1011.0
20260507050005 63 194 0.0 2.0 0.00 0.27 0.00 96 1010.5
20260507045510 63 195 0.0 3.0 0.00 0.27 0.00 96 1010.5
20260507045102 63 195 0.0 3.0 0.01 0.27 0.00 96 1010.4
20260507044503 63 183 0.0 2.0 0.02 0.27 0.00 96 1010.6
20260507044009 63 172 0.0 2.0 0.02 0.27 0.00 96 1010.4
20260507043603 63 174 0.0 0.0 0.02 0.27 0.00 96 1010.4
20260507043003 63 186 0.0 0.0 0.03 0.27 0.00 96 1010.7
20260507042510 63 163 0.0 0.0 0.03 0.27 0.00 96 1010.6
20260507042105 63 106 0.0 0.0 0.04 0.27 0.00 96 1010.6
20260507041506 63 105 0.0 0.0 0.05 0.27 0.00 96 1010.6
20260507041003 63 39 0.0 0.0 0.06 0.27 0.00 96 1010.6
20260507040604 63 355 0.0 0.0 0.07 0.27 0.00 96 1010.3
20260507040005 63 215 0.0 0.0 0.09 0.27 0.00 95 1009.6
20260507035510 63 17 0.0 0.0 0.12 0.27 0.27 95 1007.5
20260507035104 63 39 0.0 0.0 0.14 0.26 0.26 95 1009.9
20260507034505 63 176 0.0 0.0 0.14 0.25 0.25 95 1010.0
20260507034009 64 221 0.0 0.0 0.15 0.25 0.25 95 1010.4
20260507033604 64 150 0.0 0.0 0.16 0.25 0.25 95 1010.4
20260507033004 64 150 0.0 0.0 0.16 0.24 0.24 95 1011.2
20260507032510 64 150 0.0 3.0 0.16 0.24 0.24 95 1011.9
20260507032106 64 202 0.0 3.0 0.16 0.23 0.23 95 1012.2
20260507031510 64 124 0.0 4.0 0.16 0.22 0.22 94 1011.9
20260507031010 64 182 0.0 5.0 0.15 0.21 0.21 94 1012.0
20260507030605 65 167 0.0 5.0 0.13 0.19 0.19 94 1011.9
20260507030004 65 176 0.0 7.0 0.11 0.17 0.17 94 1011.9
20260507025510 65 159 0.0 7.0 0.08 0.14 0.14 94 1011.8
20260507025104 65 165 0.0 6.0 0.06 0.12 0.12 94 1012.0
20260507024503 65 147 0.0 6.0 0.05 0.10 0.10 94 1011.5
20260507024009 66 176 0.0 4.0 0.05 0.10 0.10 94 1011.2
20260507023603 66 160 0.0 4.0 0.04 0.09 0.09 94 1011.0
20260507023003 66 195 0.0 3.0 0.03 0.08 0.08 94 1010.8
20260507022510 66 191 0.0 3.0 0.03 0.08 0.08 94 1010.9
20260507022107 66 179 0.0 4.0 0.02 0.07 0.07 94 1011.1
20260507021609 66 183 0.0 6.0 0.01 0.06 0.06 94 1011.2
20260507020603 66 205 0.0 6.0 0.01 0.06 0.06 94 1010.7
20260507020005 66 228 0.0 6.0 0.01 0.06 0.06 94 1010.5
20260507015514 66 174 0.0 2.0 0.01 0.06 0.06 94 1010.5
20260507015104 66 184 0.0 2.0 0.01 0.06 0.06 93 1010.3
20260507014505 66 217 0.0 1.0 0.00 0.05 0.05 93 1010.2
20260507014010 66 217 0.0 1.0 0.01 0.05 0.05 93 1010.1
20260507013604 66 217 0.0 1.0 0.01 0.05 0.05 93 1009.8
20260507013004 66 217 0.0 0.0 0.01 0.05 0.05 93 1010.0
20260507012512 66 217 0.0 0.0 0.01 0.05 0.05 93 1009.8
20260507012104 66 217 0.0 0.0 0.01 0.05 0.05 92 1009.8
20260507011504 67 217 0.0 0.0 0.01 0.05 0.05 92 1009.9
20260507011010 67 217 0.0 0.0 0.01 0.05 0.05 92 1010.0
20260507010603 67 217 0.0 0.0 0.01 0.05 0.05 92 1010.1
20260507010003 67 217 0.0 0.0 0.01 0.05 0.05 91 1010.1
20260507005510 67 217 0.0 0.0 0.01 0.05 0.05 91 1010.2
20260507005104 67 217 0.0 1.0 0.01 0.05 0.05 91 1010.2
20260507004502 67 217 0.0 1.0 0.01 0.05 0.05 90 1010.1
20260507004010 67 217 0.0 0.0 0.00 0.04 0.04 90 1009.7
20260507003603 67 217 0.0 0.0 0.00 0.04 0.04 90 1009.9
20260507003006 68 217 0.0 1.0 0.00 0.04 0.04 89 1009.7
20260507002509 68 217 0.0 1.0 0.00 0.04 0.04 89 1009.8
20260507002104 68 217 0.0 0.0 0.00 0.04 0.04 88 1009.8
20260507001504 68 217 0.0 1.0 0.00 0.04 0.04 87 1009.9
20260507001009 68 217 0.0 1.0 0.00 0.04 0.04 87 1010.0
20260507000604 68 179 0.0 1.0 0.00 0.04 0.04 86 1009.7
20260507000003 69 179 0.0 1.0 0.00 0.04 0.04 86 1009.6
20260506235510 69 179 0.0 1.0 0.00 0.04 0.04 85 1009.6
20260506235107 69 179 0.0 1.0 0.00 0.04 0.04 84 1009.7
20260506234504 69 179 0.0 1.0 0.00 0.04 0.04 84 1009.9
20260506234010 70 179 0.0 1.0 0.00 0.04 0.04 83 1009.8
20260506233603 70 179 0.0 1.0 0.00 0.04 0.04 84 1009.8
20260506233110 70 177 0.0 0.0 0.00 0.04 0.04 83 1009.8
20260506232514 70 177 0.0 1.0 0.00 0.04 0.04 83 1009.6
20260506231505 70 162 0.0 1.0 0.00 0.04 0.04 82 1009.6
20260506231009 70 156 0.0 1.0 0.00 0.04 0.04 81 1009.7
20260506230602 70 155 0.0 1.0 0.00 0.04 0.04 82 1009.7
20260506230007 71 205 0.0 3.0 0.00 0.04 0.04 82 1010.1
20260506225509 71 192 0.0 3.0 0.00 0.04 0.04 81 1010.3
20260506225103 71 180 0.0 1.0 0.00 0.04 0.04 81 1010.2
20260506224504 71 191 0.0 1.0 0.00 0.04 0.04 80 1010.2
20260506224012 71 185 0.0 2.0 0.00 0.04 0.04 80 1010.2
20260506223606 71 168 0.0 2.0 0.00 0.04 0.04 79 1010.2
20260506223003 71 139 0.0 2.0 0.00 0.04 0.04 78 1010.1
20260506222509 71 115 0.0 4.0 0.00 0.04 0.04 78 1010.1
20260506222105 71 197 0.0 8.0 0.00 0.04 0.04 77 1010.2
20260506221504 71 200 0.0 8.0 0.00 0.04 0.04 78 1010.1
20260506221009 71 169 1.0 8.0 0.00 0.04 0.04 78 1010.3
20260506220603 72 174 0.0 5.0 0.00 0.04 0.04 79 1010.2
20260506220004 72 178 0.0 7.0 0.00 0.04 0.04 79 1010.3
20260506215509 72 176 1.0 7.0 0.00 0.04 0.04 78 1010.3
20260506215103 72 212 0.0 6.0 0.00 0.04 0.04 79 1010.2
20260506214503 72 202 0.0 7.0 0.00 0.04 0.04 78 1010.1
20260506214012 72 168 0.0 5.0 0.00 0.04 0.04 77 1009.9
20260506213603 72 185 0.0 4.0 0.00 0.04 0.04 78 1009.8
20260506213004 71 179 0.0 7.0 0.00 0.04 0.04 78 1009.7
20260506212509 71 207 2.0 7.0 0.00 0.04 0.04 77 1009.6
20260506212104 71 182 0.0 6.0 0.00 0.04 0.04 78 1009.5
20260506211504 71 205 0.0 6.0 0.00 0.04 0.04 77 1009.7
20260506211010 71 255 0.0 11.0 0.00 0.04 0.04 77 1009.8
20260506210603 71 167 1.0 11.0 0.00 0.04 0.04 76 1009.8
20260506210004 72 163 0.0 4.0 0.00 0.04 0.04 77 1010.0
20260506205511 72 177 0.0 4.0 0.00 0.04 0.04 78 1010.0